Wind_Speed
24 24 24 25 25 25 26 26 26 26 26 26 27 27 27 27 27 27 27 27 27 28 28 28 28 27 27 26 25 25 25 24 24 24 23 23 23 23 23 23 24 26 26
25 25 25 25 25 26 26 26 26 26 26 26 26 26 26 26 26 26 26 26 27 26 26 26 27 27 26 26 25 24 24 24 23 22 22 22 21 21 21 22 22 22 22
25 25 25 25 25 25 25 25 25 25 25 25 24 24 24 24 25 25 25 25 25 25 25 25 26 25 25 24 24 24 23 22 21 21 20 19 19 20 20 21 20 20 21
25 25 25 24 24 24 24 24 24 24 23 23 22 22 22 22 22 22 22 22 22 23 23 24 24 24 23 23 22 21 21 20 20 19 18 18 17 17 18 18 19 18 19
24 24 23 23 23 23 23 22 22 22 21 21 20 20 20 20 20 20 20 20 20 21 21 22 21 21 21 21 20 18 18 18 17 17 16 16 16 16 17 16 16 16 16
22 22 22 22 21 21 21 20 20 19 19 19 18 18 18 18 17 17 17 17 17 18 18 18 17 18 17 17 16 15 15 15 15 15 15 14 15 15 15 15 14 14 14
19 19 19 19 19 18 18 18 18 17 17 16 16 16 16 15 15 14 14 14 14 14 14 14 13 13 13 13 12 13 13 13 13 12 12 13 13 13 12 13 13 13 13
16 16 16 16 16 15 15 14 14 14 13 13 13 13 13 13 12 12 12 11 11 11 11 10 9 8 8 9 10 10 10 10 11 11 11 11 11 11 10 10 10 10 10
13 13 12 12 12 12 12 11 11 11 11 11 11 11 11 10 10 9 8 8 7 7 7 6 6 5 4 4 6 7 7 7 7 7 8 8 8 8 7 7 7 7 8
11 11 10 10 9 9 10 10 10 10 10 9 8 8 7 6 5 4 3 3 2 2 3 2 2 2 2 2 2 2 3 3 3 3 3 3 3 3 4 4 5 5 6
9 9 9 9 8 8 8 7 7 7 7 6 5 5 4 4 3 2 1 1 1 1 1 2 2 2 3 3 3 2 2 2 2 2 1 1 0 1 1 2 3 4 5
8 8 7 7 7 6 6 6 5 4 4 3 3 3 2 3 3 3 2 2 3 3 4 4 4 5 5 5 5 5 5 5 5 4 4 4 3 3 3 3 3 4 5
6 6 5 4 4 4 3 3 3 2 2 2 2 3 3 4 4 4 4 3 4 4 5 5 7 7 7 7 7 7 7 7 6 6 6 5 5 5 5 5 4 5 5
5 4 4 4 3 2 2 2 2 2 2 3 4 4 5 6 6 5 5 5 6 6 7 7 8 8 8 8 8 8 8 7 7 7 7 7 7 7 6 6 6 6 6
4 4 5 5 4 5 5 5 4 4 4 5 6 6 7 7 7 7 7 7 7 8 8 8 9 9 9 9 9 9 9 9 9 9 9 8 8 8 8 7 7 8 8
5 5 5 6 6 6 6 6 6 6 6 7 8 8 9 9 8 8 8 8 9 9 10 10 10 10 10 10 10 10 10 10 11 10 10 9 9 9 8 9 9 9 10
6 6 6 7 7 7 8 8 9 9 9 9 10 10 10 10 9 9 9 10 11 11 11 10 10 10 10 10 10 10 10 10 10 10 10 9 9 9 9 9 10 10 11
7 7 7 8 8 9 9 9 10 10 11 11 12 11 11 11 11 11 11 11 11 11 11 11 10 10 10 10 10 10 10 10 9 9 9 9 9 9 9 10 10 11 11
9 9 9 9 9 9 9 10 10 11 12 12 12 12 11 11 11 11 11 11 11 11 11 10 10 10 10 10 10 10 10 9 9 9 9 9 9 9 9 10 11 12 13
9 10 9 9 9 9 10 10 11 11 11 11 12 12 11 11 11 11 11 11 11 10 10 10 10 10 9 9 9 9 8 8 8 7 7 8 8 9 10 11 11 12 13
9 9 9 10 10 10 10 11 11 10 10 10 11 10 10 10 10 10 10 10 10 9 9 9 9 8 8 7 7 7 7 6 6 7 7 8 8 9 10 11 13 14 15
8 8 9 9 9 9 9 9 9 10 10 10 10 9 9 9 9 9 9 8 8 8 8 8 7 7 6 6 5 5 5 5 5 6 7 8 9 10 12 13 14 16 17
6 7 7 8 8 8 8 9 9 9 9 9 9 9 8 8 8 7 7 7 7 6 6 6 5 5 4 4 4 4 4 4 5 6 8 9 11 12 13 15 16 18 19
5 6 6 6 7 7 7 7 7 7 7 7 7 7 7 6 5 5 5 5 5 4 4 3 3 3 2 2 2 2 3 4 6 7 9 11 12 13 15 16 18 19 21
4 4 4 5 5 5 5 5 6 5 5 5 5 5 4 4 4 4 3 3 2 2 1 1 0 0 1 2 3 4 5 6 8 9 11 13 14 16 17 19 20 22 23
2 2 3 3 3 3 3 3 3 3 3 3 3 3 3 2 2 2 2 2 2 2 2 3 3 4 5 6 7 7 9 10 11 12 14 15 17 18 20 21 23 24 26
Wind_Direction
275 276 278 277 278 280 280 280 278 278 278 278 277 276 275 275 274 272 271 271 271 270 270 271 271 272 272 273 274 274 274 275 275 273 269 268 268 269 268 269 269 269 269
277 277 277 279 279 280 280 280 280 279 278 277 278 277 276 275 273 272 271 271 270 269 269 270 270 271 272 272 271 271 272 273 273 272 269 268 268 268 269 271 272 273 274
278 278 277 278 280 281 281 280 280 280 280 279 278 277 277 275 273 272 272 270 269 269 270 270 270 270 271 271 271 270 270 270 269 270 270 268 269 271 271 272 273 274 274
279 278 278 279 279 281 282 282 281 281 281 280 278 277 276 275 274 273 272 271 271 271 271 271 271 270 269 270 270 268 265 265 266 267 267 267 269 272 273 271 272 274 277
279 279 279 280 279 280 281 281 281 280 280 279 277 277 276 274 274 273 271 271 273 273 273 272 270 270 270 268 267 265 263 261 261 262 262 264 267 271 273 277 280 285 286
279 279 279 281 282 280 281 281 282 281 279 277 275 276 277 274 273 273 271 274 277 277 276 273 270 270 269 266 262 260 259 259 260 260 261 264 269 272 275 279 284 288 290
280 279 281 283 283 284 283 282 281 279 278 277 276 275 275 273 271 272 275 277 279 279 276 274 271 266 265 262 256 256 256 256 257 260 264 267 271 273 277 281 284 288 290
282 284 285 288 288 285 284 282 281 280 277 276 275 274 274 270 270 272 274 277 278 278 275 272 269 267 264 257 250 248 250 252 255 258 261 265 270 276 281 284 286 290 293
285 287 289 291 289 285 284 282 281 277 274 273 270 269 267 265 265 265 269 273 272 276 277 267 270 262 252 247 246 241 242 245 252 258 263 265 269 276 281 286 291 298 306
293 295 296 296 292 285 283 281 275 272 269 268 262 261 255 254 252 248 257 261 265 274 276 263 247 221 203 214 222 221 223 224 228 245 254 256 265 277 291 302 312 319 323
304 303 300 299 297 293 284 282 278 270 264 258 250 243 238 229 211 195 181 191 165 136 125 112 111 132 149 145 134 131 131 138 137 138 152 164 203 299 326 339 345 349 347
312 310 303 299 295 295 290 279 266 253 247 234 214 211 204 169 154 145 135 131 131 113 104 94 106 111 117 119 116 112 112 112 109 105 98 94 87 78 68 54 33 18 11
330 325 323 322 311 299 293 274 251 232 218 202 185 173 156 144 133 131 131 121 115 109 105 98 107 105 109 106 105 104 102 100 101 99 94 90 87 81 73 62 47 32 21
356 7 15 24 29 37 41 65 95 125 144 158 149 140 139 135 131 130 126 124 116 109 105 98 105 101 98 97 99 101 100 99 97 93 90 87 83 77 71 61 49 37 23
40 47 50 52 61 62 66 75 89 101 114 130 135 133 131 128 126 123 121 119 115 109 105 103 104 100 95 93 95 95 92 91 90 89 88 86 83 77 69 57 46 34 24
59 61 61 63 70 73 78 83 89 102 110 122 126 126 126 126 125 121 118 116 114 111 110 106 101 99 97 96 94 94 92 89 87 86 87 84 77 67 60 51 42 34 26
59 62 67 73 78 81 84 89 94 100 108 116 118 120 121 122 122 120 117 118 117 114 110 107 104 101 99 98 95 92 91 88 84 84 83 78 71 62 53 44 37 32 26
67 70 76 79 84 89 92 93 94 97 104 110 114 115 115 115 114 113 115 116 116 115 111 107 105 102 100 97 93 90 88 85 83 80 75 70 63 54 46 38 32 27 21
75 78 81 84 85 90 95 97 100 103 106 109 110 111 112 112 111 111 113 114 114 114 111 108 107 105 101 98 94 91 89 85 81 75 68 60 52 44 38 32 26 19 14
80 79 82 85 87 90 95 100 103 106 108 110 110 112 112 111 109 109 111 114 114 113 111 109 108 104 100 97 93 89 84 79 72 63 54 45 38 32 27 22 16 11 7
81 82 85 88 92 94 96 99 103 106 110 110 111 112 111 110 107 108 111 110 110 109 109 107 105 101 97 92 86 80 74 68 59 50 42 34 27 19 14 10 6 2 359
85 87 88 90 93 95 96 97 100 105 108 111 112 112 112 110 109 111 113 112 112 110 108 106 103 100 94 88 82 76 68 59 46 36 29 21 14 8 4 0 357 354 352
89 90 90 90 95 99 99 100 102 105 109 113 114 114 114 113 113 114 115 116 115 113 111 108 103 99 91 82 74 64 50 36 23 14 7 2 358 354 351 349 347 346 346
94 94 92 93 98 102 105 108 110 111 113 115 118 119 119 118 117 116 116 117 117 115 112 108 104 97 82 66 45 19 3 354 349 347 346 344 342 341 342 341 340 340 339
98 99 99 101 105 110 113 117 120 121 121 122 123 124 128 133 135 133 132 132 132 130 133 143 165 322 333 328 322 321 322 325 327 329 330 331 332 333 334 335 334 334 333
107 110 110 108 116 125 131 136 139 139 141 143 144 144 146 152 161 177 201 229 248 264 274 279 287 294 299 302 302 304 308 311 314 317 320 322 325 327 328 329 329 329 329
Height
5799 5797 5796 5795 5793 5792 5791 5789 5788 5787 5786 5785 5784 5784 5783 5783 5782 5782 5782 5782 5782 5782 5781 5781 5781 5781 5781 5781 5780 5780 5779 5779 5779 5778 5778 5778 5778 5778 5778 5778 5778 5778 5778
5792 5791 5790 5788 5787 5785 5784 5782 5781 5780 5779 5778 5777 5777 5776 5775 5775 5775 5775 5775 5774 5774 5774 5774 5774 5774 5774 5774 5774 5773 5773 5773 5773 5773 5773 5772 5772 5773 5773 5773 5773 5772 5772
5785 5784 5783 5781 5780 5778 5777 5775 5774 5773 5772 5771 5770 5770 5769 5768 5768 5768 5768 5767 5767 5767 5767 5767 5767 5767 5767 5767 5767 5767 5767 5767 5767 5768 5767 5767 5767 5768 5768 5768 5767 5767 5767
5778 5777 5776 5774 5773 5772 5770 5769 5768 5767 5766 5764 5764 5763 5763 5762 5762 5761 5761 5761 5761 5761 5761 5761 5761 5761 5761 5761 5761 5761 5761 5761 5762 5762 5763 5763 5763 5763 5763 5763 5763 5762 5762
5772 5770 5769 5768 5767 5765 5764 5763 5762 5761 5759 5758 5758 5757 5757 5756 5756 5756 5756 5755 5755 5755 5755 5755 5755 5755 5755 5755 5755 5756 5756 5756 5757 5757 5758 5759 5759 5759 5759 5759 5759 5758 5757
5765 5764 5763 5762 5760 5759 5758 5757 5756 5755 5754 5753 5753 5752 5752 5751 5751 5751 5751 5751 5750 5750 5750 5749 5750 5750 5750 5750 5750 5751 5752 5752 5753 5753 5754 5755 5755 5755 5755 5755 5755 5754 5754
5759 5758 5757 5756 5755 5753 5752 5751 5750 5749 5749 5748 5748 5747 5747 5747 5747 5747 5747 5747 5746 5746 5745 5745 5745 5745 5745 5745 5746 5747 5747 5748 5749 5750 5750 5751 5751 5751 5751 5751 5751 5751 5750
5754 5753 5752 5751 5750 5748 5748 5746 5746 5745 5744 5744 5744 5743 5743 5743 5743 5743 5743 5743 5743 5742 5742 5742 5741 5742 5742 5742 5742 5743 5744 5745 5746 5746 5747 5747 5748 5748 5748 5748 5747 5747 5747
5750 5749 5748 5747 5746 5745 5744 5743 5742 5741 5741 5741 5740 5740 5740 5740 5740 5741 5741 5741 5740 5740 5739 5739 5739 5739 5740 5740 5740 5741 5741 5742 5742 5743 5744 5744 5745 5745 5745 5745 5745 5745 5745
5747 5746 5744 5743 5742 5741 5740 5739 5739 5738 5738 5738 5738 5738 5738 5738 5739 5739 5739 5739 5738 5738 5738 5738 5738 5738 5739 5739 5739 5739 5740 5740 5741 5741 5742 5743 5743 5743 5743 5743 5743 5743 5743
5744 5743 5742 5741 5740 5739 5738 5737 5736 5736 5736 5736 5736 5736 5736 5737 5737 5738 5738 5738 5738 5738 5738 5738 5738 5738 5738 5738 5739 5739 5739 5740 5740 5741 5741 5742 5742 5742 5742 5742 5742 5742 5742
5742 5741 5739 5738 5737 5736 5736 5735 5734 5734 5735 5735 5735 5735 5736 5736 5737 5738 5738 5738 5739 5739 5739 5739 5739 5739 5739 5739 5740 5740 5740 5740 5741 5741 5741 5741 5742 5742 5742 5742 5741 5741 5741
5740 5739 5738 5737 5736 5735 5734 5733 5733 5733 5734 5734 5734 5735 5736 5736 5737 5738 5738 5739 5739 5740 5740 5740 5740 5740 5741 5741 5741 5741 5741 5742 5742 5742 5742 5742 5742 5742 5742 5742 5742 5741 5740
5740 5738 5737 5736 5736 5735 5734 5733 5733 5733 5734 5734 5735 5735 5736 5737 5738 5739 5740 5740 5740 5741 5741 5742 5742 5742 5742 5743 5743 5743 5743 5743 5743 5743 5743 5743 5743 5743 5743 5742 5742 5741 5740
5740 5739 5738 5737 5736 5735 5735 5734 5734 5734 5735 5735 5736 5737 5738 5739 5740 5740 5741 5742 5742 5742 5743 5744 5744 5744 5745 5745 5745 5745 5745 5745 5745 5745 5745 5745 5745 5744 5744 5743 5742 5741 5740
5741 5740 5739 5738 5738 5737 5737 5736 5736 5736 5736 5737 5738 5739 5740 5741 5742 5742 5743 5743 5744 5745 5745 5746 5746 5747 5747 5747 5747 5748 5748 5748 5747 5747 5747 5747 5747 5746 5745 5744 5743 5741 5740
5743 5742 5741 5740 5740 5739 5739 5739 5738 5739 5739 5740 5740 5741 5742 5743 5744 5745 5745 5746 5746 5747 5748 5749 5749 5749 5750 5750 5750 5750 5750 5750 5750 5750 5749 5749 5748 5747 5746 5745 5744 5742 5740
5745 5744 5743 5743 5742 5742 5742 5742 5741 5741 5742 5743 5743 5744 5745 5746 5746 5747 5747 5748 5749 5750 5751 5751 5752 5752 5752 5752 5753 5753 5753 5752 5752 5752 5751 5751 5750 5749 5747 5746 5744 5743 5740
5748 5747 5746 5746 5745 5745 5745 5745 5745 5745 5745 5746 5747 5747 5748 5749 5749 5750 5750 5751 5752 5753 5753 5754 5754 5755 5755 5755 5755 5755 5755 5755 5754 5754 5753 5752 5751 5750 5748 5747 5745 5743 5740
5751 5750 5749 5749 5749 5748 5748 5748 5748 5749 5749 5750 5750 5751 5752 5752 5753 5753 5754 5754 5755 5755 5756 5757 5757 5757 5757 5757 5757 5757 5757 5757 5756 5755 5754 5753 5752 5751 5749 5747 5745 5742 5740
5754 5753 5753 5752 5752 5752 5752 5752 5752 5752 5752 5753 5754 5754 5755 5755 5756 5756 5757 5757 5758 5758 5759 5759 5759 5760 5760 5760 5760 5759 5759 5758 5758 5757 5755 5754 5753 5751 5749 5747 5744 5741 5738
5757 5756 5756 5755 5755 5755 5755 5755 5755 5755 5756 5756 5757 5757 5758 5758 5759 5759 5760 5760 5761 5761 5761 5761 5761 5762 5761 5761 5761 5761 5760 5759 5758 5757 5756 5754 5753 5751 5749 5746 5743 5740 5737
5759 5759 5759 5758 5758 5758 5758 5758 5758 5758 5759 5759 5760 5760 5761 5761 5761 5762 5762 5762 5763 5763 5763 5763 5763 5763 5763 5762 5762 5761 5761 5760 5759 5757 5756 5754 5752 5750 5747 5745 5742 5738 5735
5761 5761 5761 5761 5761 5761 5761 5761 5761 5761 5762 5762 5762 5763 5763 5763 5764 5764 5764 5764 5765 5765 5764 5764 5764 5764 5763 5763 5762 5761 5761 5759 5758 5757 5755 5753 5751 5748 5745 5742 5739 5735 5732
5763 5763 5763 5763 5763 5763 5763 5763 5763 5764 5764 5764 5764 5764 5765 5765 5765 5765 5766 5766 5766 5766 5765 5765 5765 5764 5764 5763 5762 5761 5760 5759 5757 5755 5753 5751 5748 5746 5743 5739 5736 5732 5728
5765 5765 5765 5765 5765 5765 5765 5765 5765 5765 5765 5765 5765 5766 5766 5766 5766 5766 5766 5766 5766 5766 5766 5765 5764 5764 5763 5762 5761 5760 5758 5757 5755 5753 5750 5748 5745 5742 5739 5735 5732 5728 5723